Flag for Germany

Past Weather in Buchloe, Bavaria, Germany — Yesterday and Last 2 Weeks

Now
66 °F

Mild.


Feels Like: 66 °F
Forecast: 72 / 59 °F
Wind: 7 mph from South

Location: Lechfeld
Current Time: Aug 13, 2020 at 10:23:39 pm
Latest Report: Aug 13, 2020 at 9:20 pm
Visibility: 4 mi
Pressure30.04 "Hg(27.95 "Hg at 618m altitude)
Humidity: 78%
Dew Point: 59 °F
Location of BuchloeLocation

Past Weather in Buchloe — Graph

°F

Buchloe Temperature Yesterday

Maximum temperature yesterday: 84 °F (at 3:20 pm)
Minimum temperature yesterday: 61 °F (at 6:20 am)
Average temperature yesterday: 73 °F

High & Low Weather Summary for the Past Weeks

 TemperatureHumidityPressure
High90 °F (Jul 31, 5:20 pm)100% (Aug 4, 12:20 am)30.18 "Hg (Aug 4, 12:20 am)
Low46 °F (Aug 5, 5:35 am)29% (Aug 1, 3:20 pm)29.83 "Hg (Aug 3, 3:20 pm)
Average68 °F72%30.05 "Hg
* Reported Jul 29 8:20 pm — Aug 13 8:20 pm, Buchloe. Weather by CustomWeather, © 2020

Note: Actual official high and low records may vary slightly from our data, if they occured in-between our weather recording intervals... More about our weather records

Buchloe Weather History for the Previous 24 Hours

Scroll right to see more
 ConditionsComfort  
Time TempWeatherWind HumidityBarometerVisibility
8:20 pm
Thu, Aug 13
68 °FPartly sunny.3 mph73%30.04 "HgN/A
7:20 pm72 °FPartly sunny.5 mph61%30.04 "HgN/A
6:20 pm72 °FBroken clouds.6 mph61%30.07 "HgN/A
5:20 pm73 °FBroken clouds.9 mph61%30.07 "HgN/A
4:20 pm72 °FBroken clouds.10 mph69%30.04 "HgN/A
3:20 pm70 °FBroken clouds.10 mph78%30.07 "HgN/A
2:20 pm68 °FSprinkles. Broken clouds.10 mph83%30.07 "Hg5 mi
2:00 pm68 °FSprinkles. Broken clouds.15 mph78%30.07 "Hg3 mi
1:20 pm70 °FBroken clouds.10 mph73%30.07 "HgN/A
12:20 pm73 °FBroken clouds.9 mph61%30.04 "HgN/A
11:20 am75 °FScattered showers. Broken clouds.13 mph57%30.01 "HgN/A
10:20 am75 °FPartly sunny.13 mph61%30.01 "HgN/A
9:20 am75 °FPartly sunny.2 mph57%30.01 "HgN/A
8:20 am68 °FBroken clouds.5 mph83%30.01 "HgN/A
7:20 am66 °FBroken clouds.6 mph83%29.98 "HgN/A
6:20 am64 °FPartly sunny.3 mph83%29.98 "HgN/A
5:20 am59 °FFog.5 mph94%29.98 "HgN/A
4:20 am61 °FFog.1 mph94%29.98 "HgN/A
2:20 am64 °FPassing clouds.3 mph94%30.01 "HgN/A
1:20 am66 °FPassing clouds.5 mph83%30.01 "HgN/A
12:20 am64 °FPassing clouds.2 mph83%30.01 "HgN/A
11:20 pm
Wed, Aug 12
68 °FPassing clouds.1 mph73%30.04 "HgN/A
10:20 pm72 °FPassing clouds.2 mph69%30.04 "HgN/A
Weather by CustomWeather, © 2020

See weather overview